Radiation Dose at Monitoring Post of Fukushima Daini Nuclear Power Station
Date,Time,MP-1(microSv/h),MP-2(microSv/h),MP-3(microSv/h),MP-4(microSv/h),MP-5(microSv/h),MP-6(microSv/h),MP-7(microSv/h),Wind Direction,Wind Velocity(m/s),Rain
2018/05/04,00:00,0.309,0.196,0.314,0.301,0.295,0.159,0.097,north,5.2,No
2018/05/04,00:10,0.311,0.194,0.312,0.301,0.297,0.159,0.097,north,5.9,Yes
2018/05/04,00:20,0.309,0.194,0.312,0.298,0.296,0.158,0.097,north,5.4,No
2018/05/04,00:30,0.308,0.195,0.314,0.300,0.298,0.158,0.096,north,5.8,No
2018/05/04,00:40,0.309,0.192,0.312,0.299,0.296,0.158,0.096,north,6.0,No
2018/05/04,00:50,0.310,0.193,0.314,0.299,0.296,0.158,0.096,north,5.5,No
2018/05/04,01:00,0.310,0.194,0.314,0.300,0.297,0.158,0.096,north,5.7,No
2018/05/04,01:10,0.308,0.193,0.313,0.300,0.293,0.157,0.096,north,6.0,No
2018/05/04,01:20,0.308,0.194,0.313,0.301,0.297,0.158,0.095,north,5.8,No
2018/05/04,01:30,0.309,0.193,0.311,0.299,0.296,0.157,0.096,north-northwest,5.5,No
2018/05/04,01:40,0.308,0.193,0.313,0.299,0.295,0.158,0.095,north-northwest,5.1,No
2018/05/04,01:50,0.309,0.193,0.313,0.301,0.297,0.157,0.095,north,5.6,No
2018/05/04,02:00,0.309,0.193,0.313,0.299,0.294,0.157,0.094,north-northwest,5.9,Yes
2018/05/04,02:10,0.308,0.193,0.312,0.300,0.297,0.157,0.095,north-northwest,5.8,Yes
2018/05/04,02:20,0.309,0.193,0.314,0.299,0.296,0.158,0.096,north-northwest,4.5,Yes
2018/05/04,02:30,0.309,0.194,0.313,0.298,0.295,0.158,0.094,north-northwest,4.1,Yes
2018/05/04,02:40,0.309,0.193,0.314,0.299,0.295,0.156,0.096,north-northwest,4.5,No
2018/05/04,02:50,0.310,0.193,0.312,0.299,0.295,0.157,0.096,north-northwest,4.6,No
2018/05/04,03:00,0.308,0.193,0.314,0.300,0.297,0.157,0.096,north-northwest,4.4,Yes
2018/05/04,03:10,0.309,0.195,0.313,0.298,0.294,0.157,0.095,north-northwest,4.7,Yes
2018/05/04,03:20,0.308,0.193,0.315,0.299,0.295,0.157,0.096,north-northwest,4.5,No
2018/05/04,03:30,0.310,0.193,0.314,0.300,0.295,0.157,0.095,north,4.2,No
2018/05/04,03:40,0.309,0.195,0.313,0.299,0.294,0.158,0.095,north-northwest,5.0,Yes
2018/05/04,03:50,0.308,0.193,0.314,0.300,0.296,0.157,0.096,north-northwest,4.4,Yes
2018/05/04,04:00,0.310,0.195,0.315,0.300,0.295,0.159,0.098,north-northwest,3.0,Yes
2018/05/04,04:10,0.311,0.194,0.313,0.300,0.297,0.159,0.098,-,CALM,Yes
2018/05/04,04:20,0.310,0.194,0.315,0.302,0.296,0.158,0.097,-,CALM,Yes
2018/05/04,04:30,0.311,0.195,0.313,0.301,0.297,0.159,0.097,north-northeast,2.8,Yes
2018/05/04,04:40,0.309,0.194,0.314,0.301,0.296,0.158,0.097,north-northeast,2.7,Yes
2018/05/04,04:50,0.312,0.195,0.315,0.301,0.295,0.158,0.097,north-northeast,2.3,Yes
2018/05/04,05:00,0.309,0.195,0.313,0.299,0.297,0.157,0.096,north-northeast,3.0,Yes
2018/05/04,05:10,0.309,0.194,0.315,0.300,0.296,0.157,0.096,north-northwest,2.6,No
2018/05/04,05:20,0.309,0.195,0.314,0.300,0.293,0.158,0.096,north,3.6,No
2018/05/04,05:30,0.308,0.194,0.313,0.299,0.295,0.157,0.096,north-northwest,4.4,Yes
2018/05/04,05:40,0.308,0.193,0.313,0.301,0.295,0.158,0.095,north-northwest,3.9,Yes
2018/05/04,05:50,0.308,0.194,0.314,0.298,0.297,0.159,0.097,-,CALM,Yes
2018/05/04,06:00,0.311,0.196,0.313,0.301,0.297,0.162,0.099,-,CALM,Yes
2018/05/04,06:10,0.311,0.197,0.316,0.302,0.297,0.162,0.099,north,3.6,Yes
2018/05/04,06:20,0.310,0.198,0.314,0.300,0.298,0.161,0.099,north,4.5,Yes
2018/05/04,06:30,0.310,0.196,0.314,0.302,0.295,0.161,0.099,-,CALM,Yes
2018/05/04,06:40,0.310,0.196,0.313,0.301,0.298,0.161,0.099,-,CALM,Yes
2018/05/04,06:50,0.311,0.198,0.316,0.302,0.298,0.161,0.099,-,CALM,Yes
2018/05/04,07:00,0.311,0.197,0.315,0.303,0.297,0.161,0.100,-,CALM,Yes
2018/05/04,07:10,0.313,0.198,0.316,0.302,0.299,0.162,0.099,-,CALM,Yes
2018/05/04,07:20,0.311,0.198,0.314,0.302,0.297,0.162,0.101,-,CALM,Yes
2018/05/04,07:30,0.312,0.198,0.314,0.301,0.299,0.163,0.102,-,CALM,Yes
2018/05/04,07:40,0.311,0.197,0.316,0.300,0.300,0.162,0.101,-,CALM,Yes
2018/05/04,07:50,0.311,0.197,0.313,0.301,0.298,0.161,0.101,-,CALM,Yes
2018/05/04,08:00,0.311,0.195,0.314,0.301,0.298,0.161,0.100,-,CALM,Yes
2018/05/04,08:10,0.309,0.196,0.313,0.299,0.297,0.161,0.099,north-northwest,5.8,Yes
2018/05/04,08:20,0.311,0.196,0.313,0.301,0.295,0.161,0.099,northwest,5.9,Yes
2018/05/04,08:30,0.308,0.195,0.313,0.300,0.298,0.160,0.099,northwest,8.1,Yes
2018/05/04,08:40,0.308,0.196,0.313,0.299,0.296,0.160,0.098,west-northwest,7.7,Yes
2018/05/04,08:50,0.311,0.197,0.314,0.301,0.298,0.163,0.101,northwest,6.9,Yes
2018/05/04,09:00,0.310,0.199,0.315,0.300,0.298,0.164,0.104,-,CALM,Yes
2018/05/04,09:10,0.312,0.202,0.316,0.301,0.299,0.167,0.105,-,CALM,Yes
2018/05/04,09:20,0.315,0.203,0.316,0.304,0.304,0.168,0.107,-,CALM,Yes
2018/05/04,09:30,0.315,0.203,0.318,0.304,0.304,0.169,0.107,north-northwest,6.2,Yes
2018/05/04,09:40,0.316,0.205,0.318,0.304,0.303,0.169,0.109,-,CALM,Yes
2018/05/04,09:50,0.317,0.206,0.318,0.307,0.305,0.171,0.110,-,CALM,Yes
2018/05/04,10:00,0.316,0.206,0.319,0.305,0.306,0.171,0.111,north,3.8,Yes
2018/05/04,10:10,0.316,0.207,0.320,0.306,0.305,0.171,0.111,north-northwest,2.3,Yes
2018/05/04,10:20,0.316,0.207,0.318,0.307,0.306,0.171,0.111,north,2.8,Yes
2018/05/04,10:30,0.317,0.207,0.320,0.305,0.305,0.170,0.111,-,CALM,Yes
2018/05/04,10:40,0.313,0.205,0.317,0.304,0.304,0.169,0.108,north-northwest,2.9,No
2018/05/04,10:50,0.313,0.202,0.316,0.303,0.303,0.166,0.107,north-northwest,2.8,No
2018/05/04,11:00,0.309,0.200,0.317,0.301,0.300,0.163,0.105,north,2.6,No
2018/05/04,11:10,0.310,0.198,0.312,0.300,0.300,0.161,0.103,north,1.9,No
2018/05/04,11:20,0.307,0.196,0.312,0.297,0.297,0.161,0.100,north-northeast,1.4,No
2018/05/04,11:30,0.306,0.196,0.311,0.297,0.298,0.159,0.101,north-northwest,1.4,No
2018/05/04,11:40,0.306,0.194,0.310,0.296,0.296,0.159,0.098,north-northwest,2.9,No
2018/05/04,11:50,0.305,0.194,0.309,0.297,0.294,0.159,0.098,north-northwest,2.8,No
2018/05/04,12:00,0.303,0.192,0.309,0.293,0.296,0.157,0.097,north-northwest,1.2,No
2018/05/04,12:10,0.306,0.192,0.306,0.295,0.292,0.157,0.097,northwest,1.5,No
2018/05/04,12:20,0.302,0.193,0.309,0.294,0.296,0.156,0.096,north-northwest,1.9,No
2018/05/04,12:30,0.305,0.192,0.307,0.292,0.294,0.156,0.096,west-northwest,3.0,No
2018/05/04,12:40,0.303,0.192,0.306,0.295,0.292,0.156,0.096,north-northeast,2.1,No
2018/05/04,12:50,0.303,0.191,0.309,0.296,0.296,0.155,0.095,east-northeast,3.1,No
2018/05/04,13:00,0.304,0.192,0.307,0.293,0.293,0.156,0.095,east-northeast,2.8,No
2018/05/04,13:10,0.305,0.191,0.310,0.296,0.296,0.155,0.095,northeast,2.9,No
2018/05/04,13:20,0.304,0.193,0.309,0.296,0.295,0.156,0.095,east-northeast,1.9,No
2018/05/04,13:30,0.306,0.192,0.311,0.297,0.296,0.156,0.096,east,2.5,No
2018/05/04,13:40,0.305,0.192,0.310,0.295,0.295,0.156,0.095,east,2.9,No
2018/05/04,13:50,0.306,0.192,0.312,0.298,0.295,0.157,0.096,northeast,3.8,No
2018/05/04,14:00,0.304,0.192,0.310,0.294,0.295,0.155,0.095,northeast,4.7,No
2018/05/04,14:10,0.307,0.191,0.309,0.296,0.292,0.157,0.095,northeast,3.7,No
2018/05/04,14:20,0.304,0.192,0.311,0.297,0.295,0.155,0.095,northeast,3.0,No
2018/05/04,14:30,0.304,0.191,0.308,0.293,0.294,0.156,0.095,northeast,2.8,No
2018/05/04,14:40,0.305,0.192,0.309,0.298,0.295,0.156,0.095,northeast,3.5,No
2018/05/04,14:50,0.303,0.192,0.308,0.296,0.296,0.156,0.095,northeast,2.5,No
2018/05/04,15:00,0.306,0.193,0.310,0.297,0.298,0.157,0.095,east-northeast,1.0,No
2018/05/04,15:10,0.304,0.192,0.309,0.297,0.296,0.157,0.096,east-northeast,0.6,Yes
2018/05/04,15:20,0.306,0.192,0.312,0.298,0.296,0.155,0.095,west,2.3,No
2018/05/04,15:30,0.304,0.192,0.309,0.297,0.295,0.156,0.095,west-northwest,7.5,No
2018/05/04,15:40,0.306,0.192,0.312,0.297,0.295,0.156,0.095,west-northwest,7.5,No
2018/05/04,15:50,0.306,0.192,0.310,0.297,0.295,0.156,0.095,west-northwest,6.1,No
2018/05/04,16:00,0.307,0.191,0.310,0.297,0.296,0.156,0.095,northwest,5.7,No
2018/05/04,16:10,0.307,0.192,0.310,0.298,0.295,0.156,0.095,north-northwest,4.8,No
2018/05/04,16:20,0.306,0.192,0.311,0.296,0.293,0.156,0.095,north-northwest,5.2,No
2018/05/04,16:30,0.305,0.192,0.311,0.298,0.295,0.157,0.094,north-northwest,3.0,No
2018/05/04,16:40,0.305,0.192,0.310,0.297,0.294,0.155,0.095,north,2.0,No
2018/05/04,16:50,0.305,0.191,0.312,0.300,0.298,0.156,0.095,north,3.7,No
2018/05/04,17:00,0.305,0.192,0.310,0.297,0.293,0.156,0.095,north,3.7,No
2018/05/04,17:10,0.307,0.192,0.312,0.298,0.297,0.156,0.095,north,2.6,No
2018/05/04,17:20,0.306,0.192,0.310,0.298,0.295,0.157,0.095,north,2.6,No
2018/05/04,17:30,0.306,0.192,0.312,0.298,0.293,0.156,0.095,north,2.7,No
2018/05/04,17:40,0.306,0.192,0.310,0.297,0.295,0.156,0.094,north,2.0,No
2018/05/04,17:50,0.308,0.192,0.311,0.299,0.295,0.157,0.095,north-northeast,2.3,No
2018/05/04,18:00,0.308,0.193,0.311,0.298,0.297,0.157,0.094,north,3.2,No
2018/05/04,18:10,0.307,0.193,0.311,0.297,0.296,0.157,0.095,north-northwest,1.0,No
2018/05/04,18:20,0.306,0.192,0.313,0.299,0.297,0.157,0.096,north-northwest,0.8,No
2018/05/04,18:30,0.308,0.193,0.311,0.297,0.296,0.157,0.095,north,1.3,No
2018/05/04,18:40,0.306,0.193,0.313,0.298,0.296,0.157,0.095,north,0.9,No
2018/05/04,18:50,0.307,0.193,0.312,0.300,0.298,0.156,0.096,-,CALM,No
2018/05/04,19:00,0.306,0.194,0.313,0.298,0.295,0.156,0.095,-,CALM,No
2018/05/04,19:10,0.308,0.192,0.313,0.300,0.297,0.158,0.095,north-northwest,1.2,No
2018/05/04,19:20,0.307,0.192,0.311,0.299,0.296,0.158,0.094,west-northwest,1.3,No
2018/05/04,19:30,0.308,0.193,0.313,0.299,0.296,0.158,0.096,northwest,1.7,No
2018/05/04,19:40,0.308,0.193,0.310,0.299,0.296,0.157,0.095,west-northwest,1.7,No
2018/05/04,19:50,0.306,0.194,0.314,0.297,0.297,0.158,0.095,north-northwest,1.2,No
2018/05/04,20:00,0.307,0.192,0.313,0.299,0.298,0.157,0.095,north,1.0,No
2018/05/04,20:10,0.307,0.194,0.312,0.298,0.295,0.158,0.095,north-northeast,1.3,No
2018/05/04,20:20,0.308,0.192,0.314,0.299,0.298,0.159,0.094,north,1.3,No
2018/05/04,20:30,0.308,0.191,0.312,0.301,0.295,0.157,0.096,north,1.6,No
2018/05/04,20:40,0.306,0.194,0.312,0.297,0.298,0.158,0.095,north,1.1,No
2018/05/04,20:50,0.308,0.193,0.312,0.299,0.296,0.158,0.094,north-northwest,1.0,No
2018/05/04,21:00,0.308,0.192,0.312,0.299,0.295,0.158,0.095,north-northeast,1.0,No
2018/05/04,21:10,0.307,0.193,0.313,0.298,0.297,0.157,0.095,north-northeast,0.7,No
2018/05/04,21:20,0.309,0.194,0.313,0.298,0.297,0.156,0.095,north-northwest,1.0,No
2018/05/04,21:30,0.308,0.193,0.312,0.300,0.297,0.157,0.096,-,CALM,No
2018/05/04,21:40,0.310,0.194,0.313,0.299,0.296,0.158,0.095,-,CALM,No
2018/05/04,21:50,0.308,0.192,0.312,0.300,0.296,0.157,0.095,north,0.9,No
2018/05/04,22:00,0.307,0.193,0.312,0.299,0.297,0.157,0.096,north,1.3,No
2018/05/04,22:10,0.308,0.193,0.313,0.299,0.295,0.158,0.095,north-northwest,0.9,No
2018/05/04,22:20,0.308,0.193,0.313,0.300,0.297,0.158,0.094,northwest,2.3,No
2018/05/04,22:30,0.307,0.193,0.313,0.299,0.297,0.157,0.096,north,2.8,No
2018/05/04,22:40,0.309,0.194,0.315,0.299,0.295,0.158,0.096,north-northwest,3.0,No
2018/05/04,22:50,0.308,0.194,0.312,0.300,0.296,0.157,0.095,north-northwest,3.6,No
2018/05/04,23:00,0.307,0.192,0.314,0.298,0.297,0.157,0.095,north,2.2,No
2018/05/04,23:10,0.310,0.193,0.315,0.299,0.295,0.157,0.095,north,2.1,No
2018/05/04,23:20,0.308,0.193,0.313,0.298,0.295,0.157,0.095,north-northeast,2.3,No
2018/05/04,23:30,0.308,0.193,0.312,0.300,0.297,0.156,0.096,north-northeast,2.4,No
2018/05/04,23:40,0.309,0.194,0.313,0.299,0.295,0.157,0.095,northeast,1.8,No
2018/05/04,23:50,0.308,0.193,0.313,0.300,0.296,0.157,0.095,southeast,0.8,No
